Meteo orario Alitub

Oggi, 22 Ottobre, Giovedi

Tempo Temperatura Precipitazioni Vento Pressione Umidità
00:00 +11°C° 0 mm 1 m/s 769 mm Hg 44%
01:00 +10°C° 0 mm 1 m/s 768 mm Hg 45%
02:00 +10°C° 0 mm 1 m/s 768 mm Hg 46%
03:00 +10°C° 0 mm 1 m/s 768 mm Hg 48%
04:00 +10°C° 0 mm 1 m/s 767 mm Hg 48%
05:00 +10°C° 0 mm 1 m/s 767 mm Hg 48%
06:00 +9°C° 0 mm 2 m/s 767 mm Hg 49%
07:00 +10°C° 0 mm 2 m/s 767 mm Hg 46%
08:00 +12°C° 0 mm 2 m/s 767 mm Hg 44%
09:00 +12°C° 0 mm 2 m/s 767 mm Hg 42%
10:00 +14°C° 0 mm 2 m/s 767 mm Hg 42%
11:00 +14°C° 0 mm 3 m/s 767 mm Hg 42%
12:00 +16°C° 0 mm 3 m/s 767 mm Hg 41%
13:00 +17°C° 0 mm 3 m/s 767 mm Hg 43%
14:00 +17°C° 0 mm 3 m/s 766 mm Hg 44%
15:00 +18°C° 0 mm 4 m/s 766 mm Hg 46%
16:00 +17°C° 0 mm 3 m/s 766 mm Hg 52%
17:00 +16°C° 0 mm 3 m/s 766 mm Hg 58%
18:00 +14°C° 0 mm 3 m/s 766 mm Hg 64%
19:00 +14°C° 0 mm 3 m/s 766 mm Hg 66%
20:00 +14°C° 0 mm 3 m/s 766 mm Hg 68%
21:00 +14°C° 0 mm 3 m/s 766 mm Hg 70%
22:00 +13°C° 0 mm 3 m/s 766 mm Hg 75%
23:00 +13°C° 0 mm 3 m/s 766 mm Hg 80%

Domani, 23 Ottobre, Venerdi

Tempo Temperatura Precipitazioni Vento Pressione Umidità
00:00 +12°C° 0 mm 3 m/s 766 mm Hg 84%
01:00 +12°C° 0 mm 3 m/s 766 mm Hg 86%
02:00 +12°C° 0 mm 3 m/s 766 mm Hg 87%
03:00 +12°C° 0 mm 3 m/s 766 mm Hg 89%
04:00 +12°C° 0 mm 3 m/s 766 mm Hg 88%
05:00 +12°C° 0 mm 3 m/s 765 mm Hg 87%
06:00 +11°C° 0 mm 4 m/s 765 mm Hg 87%
07:00 +13°C° 0 mm 4 m/s 765 mm Hg 84%
08:00 +14°C° 0 mm 4 m/s 766 mm Hg 81%
09:00 +15°C° 0 mm 4 m/s 766 mm Hg 79%
10:00 +16°C° 0 mm 5 m/s 765 mm Hg 72%
11:00 +19°C° 0 mm 5 m/s 765 mm Hg 66%
12:00 +20°C° 0 mm 5 m/s 765 mm Hg 60%
13:00 +20°C° 0 mm 5 m/s 765 mm Hg 60%
14:00 +20°C° 0 mm 5 m/s 765 mm Hg 60%
15:00 +21°C° 0 mm 5 m/s 764 mm Hg 61%
16:00 +19°C° 0 mm 4 m/s 764 mm Hg 66%
17:00 +18°C° 0 mm 4 m/s 764 mm Hg 72%
18:00 +17°C° 0 mm 3 m/s 764 mm Hg 78%
19:00 +16°C° 0 mm 3 m/s 764 mm Hg 80%
20:00 +16°C° 0 mm 3 m/s 763 mm Hg 82%
21:00 +14°C° 0 mm 3 m/s 763 mm Hg 84%
22:00 +14°C° 0 mm 3 m/s 763 mm Hg 85%
23:00 +13°C° 0 mm 3 m/s 763 mm Hg 86%

Dopodomani, 24 Ottobre, Sabato

Tempo Temperatura Precipitazioni Vento Pressione Umidità
00:00 +13°C° 0 mm 3 m/s 763 mm Hg 87%
01:00 +13°C° 0 mm 3 m/s 763 mm Hg 88%
02:00 +12°C° 0 mm 3 m/s 762 mm Hg 90%
03:00 +12°C° 0 mm 3 m/s 762 mm Hg 91%
04:00 +12°C° 0 mm 3 m/s 762 mm Hg 92%
05:00 +12°C° 0 mm 3 m/s 762 mm Hg 94%
06:00 +12°C° 0 mm 3 m/s 762 mm Hg 95%
07:00 +13°C° 0 mm 3 m/s 762 mm Hg 92%
08:00 +14°C° 0 mm 4 m/s 762 mm Hg 89%
09:00 +15°C° 0 mm 4 m/s 762 mm Hg 86%
10:00 +17°C° 0 mm 4 m/s 762 mm Hg 80%
11:00 +17°C° 0 mm 5 m/s 762 mm Hg 74%
12:00 +19°C° 0 mm 5 m/s 762 mm Hg 69%
13:00 +19°C° 0 mm 5 m/s 761 mm Hg 68%
14:00 +19°C° 0 mm 4 m/s 761 mm Hg 66%
15:00 +19°C° 0 mm 4 m/s 761 mm Hg 65%
16:00 +18°C° 0 mm 3 m/s 761 mm Hg 70%
17:00 +17°C° 0 mm 2 m/s 761 mm Hg 75%
18:00 +16°C° 0 mm 1 m/s 761 mm Hg 80%
19:00 +15°C° 0 mm 1 m/s 761 mm Hg 83%
20:00 +15°C° 0 mm 1 m/s 761 mm Hg 86%
21:00 +14°C° 0 mm 1 m/s 761 mm Hg 88%
22:00 +14°C° 0 mm 2 m/s 761 mm Hg 89%
23:00 +14°C° 0 mm 2 m/s 761 mm Hg 91%

, 25 Ottobre, Domenica

Tempo Temperatura Precipitazioni Vento Pressione Umidità
00:00 +14°C° 0 mm 2 m/s 760 mm Hg 92%
01:00 +14°C° 0 mm 2 m/s 760 mm Hg 93%
02:00 +14°C° 0 mm 2 m/s 760 mm Hg 93%
03:00 +14°C° 0 mm 2 m/s 760 mm Hg 94%
04:00 +15°C° 0 mm 2 m/s 760 mm Hg 94%
05:00 +15°C° 0 mm 2 m/s 760 mm Hg 94%
06:00 +14°C° 0 mm 3 m/s 760 mm Hg 94%
07:00 +14°C° 0.3 mm 3 m/s 760 mm Hg 92%
08:00 +16°C° 0.3 mm 3 m/s 760 mm Hg 90%
09:00 +17°C° 0.3 mm 3 m/s 760 mm Hg 88%
10:00 +18°C° 0 mm 4 m/s 760 mm Hg 79%
11:00 +20°C° 0 mm 4 m/s 761 mm Hg 71%
12:00 +21°C° 0 mm 4 m/s 761 mm Hg 62%
13:00 +21°C° 0 mm 4 m/s 761 mm Hg 58%
14:00 +21°C° 0 mm 4 m/s 761 mm Hg 55%
15:00 +21°C° 0 mm 4 m/s 761 mm Hg 51%
16:00 +20°C° 0 mm 3 m/s 761 mm Hg 54%
17:00 +19°C° 0 mm 3 m/s 761 mm Hg 57%
18:00 +18°C° 0 mm 2 m/s 761 mm Hg 60%
19:00 +17°C° 0 mm 2 m/s 762 mm Hg 62%
20:00 +16°C° 0 mm 2 m/s 762 mm Hg 65%
21:00 +16°C° 0 mm 2 m/s 763 mm Hg 67%
22:00 +15°C° 0 mm 2 m/s 763 mm Hg 70%
23:00 +15°C° 0 mm 2 m/s 763 mm Hg 73%

25 Ottobre, Domenica

Tempo Temperatura Precipitazioni Vento Pressione Umidità
00:00 +14°C° 0 mm 2 m/s 760 mm Hg 92%
01:00 +14°C° 0 mm 2 m/s 760 mm Hg 93%
02:00 +14°C° 0 mm 2 m/s 760 mm Hg 93%
03:00 +14°C° 0 mm 2 m/s 760 mm Hg 94%
04:00 +15°C° 0 mm 2 m/s 760 mm Hg 94%
05:00 +15°C° 0 mm 2 m/s 760 mm Hg 94%
06:00 +14°C° 0 mm 3 m/s 760 mm Hg 94%
07:00 +14°C° 0.3 mm 3 m/s 760 mm Hg 92%
08:00 +16°C° 0.3 mm 3 m/s 760 mm Hg 90%
09:00 +17°C° 0.3 mm 3 m/s 760 mm Hg 88%
10:00 +18°C° 0 mm 4 m/s 760 mm Hg 79%
11:00 +20°C° 0 mm 4 m/s 761 mm Hg 71%
12:00 +21°C° 0 mm 4 m/s 761 mm Hg 62%
13:00 +21°C° 0 mm 4 m/s 761 mm Hg 58%
14:00 +21°C° 0 mm 4 m/s 761 mm Hg 55%
15:00 +21°C° 0 mm 4 m/s 761 mm Hg 51%
16:00 +20°C° 0 mm 3 m/s 761 mm Hg 54%
17:00 +19°C° 0 mm 3 m/s 761 mm Hg 57%
18:00 +18°C° 0 mm 2 m/s 761 mm Hg 60%
19:00 +17°C° 0 mm 2 m/s 762 mm Hg 62%
20:00 +16°C° 0 mm 2 m/s 762 mm Hg 65%
21:00 +16°C° 0 mm 2 m/s 763 mm Hg 67%
22:00 +15°C° 0 mm 2 m/s 763 mm Hg 70%
23:00 +15°C° 0 mm 2 m/s 763 mm Hg 73%

26 Ottobre, Lunedi

Tempo Temperatura Precipitazioni Vento Pressione Umidità
00:00 +13°C° 0 mm 3 m/s 764 mm Hg 76%
01:00 +13°C° 0 mm 3 m/s 764 mm Hg 78%
02:00 +12°C° 0 mm 3 m/s 764 mm Hg 80%
03:00 +11°C° 0 mm 3 m/s 764 mm Hg 82%
04:00 +11°C° 0 mm 3 m/s 765 mm Hg 83%
05:00 +10°C° 0 mm 3 m/s 765 mm Hg 84%
06:00 +10°C° 0 mm 3 m/s 765 mm Hg 85%
07:00 +11°C° 0 mm 3 m/s 766 mm Hg 79%
08:00 +11°C° 0 mm 4 m/s 766 mm Hg 74%
09:00 +12°C° 0 mm 4 m/s 766 mm Hg 69%
10:00 +13°C° 0 mm 4 m/s 766 mm Hg 61%
11:00 +15°C° 0 mm 4 m/s 766 mm Hg 53%
12:00 +17°C° 0 mm 4 m/s 766 mm Hg 46%
13:00 +18°C° 0 mm 3 m/s 766 mm Hg 43%
14:00 +18°C° 0 mm 3 m/s 766 mm Hg 41%
15:00 +18°C° 0 mm 3 m/s 766 mm Hg 38%
16:00 +17°C° 0 mm 3 m/s 766 mm Hg 42%
17:00 +16°C° 0 mm 3 m/s 766 mm Hg 45%
18:00 +14°C° 0 mm 3 m/s 766 mm Hg 49%
19:00 +13°C° 0 mm 3 m/s 766 mm Hg 51%
20:00 +12°C° 0 mm 3 m/s 767 mm Hg 54%
21:00 +11°C° 0 mm 3 m/s 767 mm Hg 56%
22:00 +11°C° 0 mm 3 m/s 767 mm Hg 58%
23:00 +10°C° 0 mm 3 m/s 767 mm Hg 60%

27 Ottobre, Martedi

Tempo Temperatura Precipitazioni Vento Pressione Umidità
00:00 +10°C° 0 mm 3 m/s 767 mm Hg 62%
01:00 +10°C° 0 mm 3 m/s 767 mm Hg 64%
02:00 +9°C° 0 mm 3 m/s 767 mm Hg 66%
03:00 +9°C° 0 mm 3 m/s 768 mm Hg 68%
04:00 +7°C° 0 mm 4 m/s 768 mm Hg 69%
05:00 +7°C° 0 mm 4 m/s 768 mm Hg 71%
06:00 +7°C° 0 mm 4 m/s 768 mm Hg 73%
07:00 +8°C° 0 mm 4 m/s 768 mm Hg 69%
08:00 +9°C° 0 mm 5 m/s 769 mm Hg 65%
09:00 +10°C° 0 mm 5 m/s 769 mm Hg 61%
10:00 +11°C° 0 mm 6 m/s 769 mm Hg 55%
11:00 +14°C° 0 mm 6 m/s 769 mm Hg 49%
12:00 +15°C° 0 mm 6 m/s 769 mm Hg 44%
13:00 +15°C° 0 mm 6 m/s 768 mm Hg 43%
14:00 +15°C° 0 mm 7 m/s 768 mm Hg 42%
15:00 +15°C° 0 mm 7 m/s 768 mm Hg 41%
16:00 +15°C° 0 mm 6 m/s 768 mm Hg 44%
17:00 +14°C° 0 mm 6 m/s 768 mm Hg 47%
18:00 +13°C° 0 mm 5 m/s 768 mm Hg 50%
19:00 +12°C° 0 mm 5 m/s 768 mm Hg 51%
20:00 +11°C° 0 mm 6 m/s 769 mm Hg 53%
21:00 +10°C° 0 mm 6 m/s 769 mm Hg 54%
22:00 +10°C° 0 mm 6 m/s 768 mm Hg 54%
23:00 +9°C° 0 mm 6 m/s 768 mm Hg 53%
Mostrare altro

Abbiamo bisogno del tuo consenso

Meteoprog e i nostri fornitori di servizi possono memorizzare e accedere a dati personali come cookie, identificatori di dispositivi o altre tecnologie simili sul tuo dispositivo e possono elaborare tali dati per personalizzare i contenuti e gli annunci, nonché fornire funzionalità dei social media e analizzarne il traffico.

  • Archiviare e/o accedere alle informazioni sul tuo dispositivo

    Cookie, identificatori di dispositivi o altre informazioni possono essere memorizzati o resi accessibili sul tuo dispositivo per le finalità sopra indicate.

  • Annunci e contenuti personalizzati, misurazione di annunci e contenuti, approfondimenti sul pubblico e sviluppo di prodotti

    Gli annunci e i contenuti possono essere personalizzati in base a un profilo. È possibile aggiungere più dati per personalizzare meglio annunci e contenuti. È possibile misurare il rendimento degli annunci e dei contenuti. È possibile ricavare informazioni sul pubblico che ha visto gli annunci e i contenuti. Tali dati possono essere utilizzati per sviluppare o migliorare l'esperienza, i sistemi e il software dell'utente.

Cliccando su “Accetto”, acconsenti all'uso di cookie, identificatori di dispositivo, web beacon o altre tecnologie simili. Puoi modificare le impostazioni nel browser del tuo dispositivo.

Per determinati scopi, è possibile fare affidamento su interessi legali, piuttosto che sul consenso. Puoi approfondire questo argomento consultando la nostra Informativa sulla privacy e sui cookie.